Flag for Norway Weather past 2 weeks in Stavanger, Norway

Now
61 °F

Partly sunny.


Feels Like: 61 °F
Forecast: 55 / 61 °F
Wind: 13 mph from Southeast

Location: Stavanger / Sola

Current Time: Aug 29, 2014 at 8:12:33 AM

Latest Report: Aug 29, 2014 at 7:50 AM


Visibility: N/A

Pressure: 29.80 "Hg

Humidity: 63%

Dew point: 48 °F

Location of StavangerLocation

Historic Weather in Stavanger — Graph

°F

Stavanger temperature yesterday

Maximum temperature yesterday: 64 °F (at 2:20 PM)
Minimum temperature yesterday: 52 °F (at 12:20 AM)
Average temperature yesterday: 58 °F

Past Weeks' High & Low Weather Summary

 TemperatureHumidityPressure
High68 °F (Aug 14, 2:20 PM)100% (Aug 18, 12:20 AM)29.98 "Hg (Aug 18, 12:20 AM)
Low48 °F (Aug 22, 5:50 AM)49% (Aug 14, 2:20 PM)29.21 "Hg (Aug 18, 9:20 AM)
Average57 °F81%29.66 "Hg
* Reported Aug 14 6:20 AM — Aug 29 6:50 AM, Stavanger, Weather by CustomWeather, © 2014

Note: Actual official high and low records may vary slightly from our data, if they occured in-between our weather recording intervals... More about our weather records

Advertising

Stavanger weather history for previous 24 hours

 ConditionsComfort  
Time TempWeatherWind HumidityBarometerVisibility
6:50 AM
Aug 29
61 °FPassing clouds.13 mph68%29.83 "HgN/A
6:20 AM61 °FPartly cloudy.10 mph63%29.83 "HgN/A
5:50 AM61 °FPassing clouds.9 mph63%29.83 "HgN/A
4:50 AM59 °FClear.6 mph63%29.83 "Hg10 mi
3:50 AM59 °FClear.8 mph63%29.83 "Hg10 mi
2:50 AM57 °FClear.6 mph63%29.86 "Hg10 mi
1:50 AM55 °FClear.6 mph67%29.89 "Hg10 mi
1:20 AM54 °FClear.6 mph77%29.89 "Hg10 mi
12:50 AM55 °FClear.7 mph72%29.89 "Hg10 mi
12:20 AM55 °FClear.7 mph77%29.89 "Hg10 mi
11:50 PM
Aug 28
54 °FClear.6 mph82%29.89 "Hg10 mi
11:20 PM54 °FClear.2 mph77%29.92 "Hg10 mi
10:50 PM55 °FClear.3 mph72%29.92 "Hg10 mi
10:20 PM55 °FClear.5 mph77%29.92 "Hg10 mi
9:50 PM57 °FClear.6 mph77%29.92 "Hg10 mi
9:20 PM57 °FSunny.3 mph77%29.92 "Hg10 mi
8:50 PM59 °FSunny.2 mph68%29.92 "Hg10 mi
8:20 PM61 °FSunny.3 mph68%29.92 "Hg10 mi
7:50 PM61 °FPassing clouds.6 mph68%29.92 "HgN/A
7:20 PM61 °FPassing clouds.8 mph68%29.92 "HgN/A
6:50 PM63 °FPassing clouds.10 mph64%29.92 "HgN/A
6:20 PM63 °FPassing clouds.13 mph64%29.95 "HgN/A
5:50 PM63 °FPassing clouds.10 mph59%29.95 "HgN/A
5:20 PM63 °FPassing clouds.13 mph59%29.95 "HgN/A
4:50 PM64 °FPassing clouds.14 mph64%29.95 "HgN/A
4:20 PM63 °FPassing clouds.13 mph68%29.95 "HgN/A
3:50 PM63 °FPassing clouds.14 mph68%29.95 "HgN/A
3:20 PM63 °FPassing clouds.13 mph68%29.95 "HgN/A
2:50 PM64 °FPassing clouds.13 mph64%29.95 "HgN/A
2:20 PM64 °FPassing clouds.10 mph60%29.95 "HgN/A
1:50 PM63 °FPassing clouds.9 mph64%29.95 "HgN/A
1:20 PM63 °FPassing clouds.8 mph64%29.95 "HgN/A
12:50 PM63 °FScattered clouds.9 mph64%29.95 "HgN/A
12:20 PM63 °FPartly sunny.10 mph68%29.98 "HgN/A
11:50 AM61 °FPartly sunny.9 mph68%29.98 "HgN/A
11:20 AM61 °FPartly sunny.8 mph68%29.95 "HgN/A
10:50 AM61 °FPartly sunny.9 mph68%29.95 "HgN/A
10:20 AM59 °FPartly sunny.7 mph68%29.95 "HgN/A
9:50 AM59 °FPartly sunny.6 mph77%29.98 "HgN/A
9:20 AM57 °FPartly sunny.6 mph82%29.98 "HgN/A
8:50 AM57 °FPartly sunny.5 mph82%29.98 "HgN/A
8:20 AM55 °FPartly sunny.5 mph88%29.98 "HgN/A
Weather by CustomWeather, © 2014

See weather overviewHow to use our weather pages